Showing default

ICEYE-X38, 59100

Orbit data source: Space-Track

ICEYE-X38, 59100 is a payload satellite owned by ICEYE (FI) in SSO that was launched on Mon, 04 Mar 2024 UTC via an FALCON 9 launch vehicle from the Air Force Western Test Range (AFWTR). Payload-class satellites include a variety of spacecraft equipped with specific instruments for various scientific and technological missions. These include communications satellites like Starlink; space stations such as the ISS; scientific satellites like the Hubble; Earth observation satellites from companies like Planet Labs, Umbra, and HawkEye 360; GPS; miniature CubeSats for education and research; and military/defense satellites.

Loading next visibility...
Identifier
59100, 2024-043C
Orbit
SSO
Country
Flag of FIFI / FIN
Related business
Manufacturer
ICEYE
Mission
Operational Commercial Radar Imaging
Bus & Motor
ICEYE, Unknown motor
Mass
90 kg wet, 89 kg dry
Launch date (UTC)
2024-03-04 (2 years ago)
Launch vehicle
FALCON 9
Launch site
Air Force Western Test Range (AFWTR)
Object type
Payload
Rocket body
Debris
Shape & HBR
Box + 1 Pan, 2.4 m
Radar Cross Section
0.825 m², Medium (>0.1 m² and < 1m²)

Expand to show TLE details & history
Last TLE update: 15 hours ago

TLE from 15 hours ago
0 ICEYE-X38
1 59100U 24043C   26235.56983330  .00003940  00000-0  22480-3 0  9998
2 59100  97.8484  21.2312 0002295 178.0870 182.0370 15.13374328121863
Epoch: 2026-08-23T13:40Z
TLE epoch observation values (Epoch: 2026-08-23T13:40:33.597Z)
Latitude
0.00006°
Longitude
-155.77279°
Altitude
530.571 km
Speed
7.597 km/s
True Right ascension
01h 24m 55s
True Declination
0° 00' 00"
Sunlit
Object was in full shadow at epoch
Visualization orbit readout
Latitude
Unknown
Longitude
Unknown
Altitude
Unknown
Speed
Unknown
Apparent Right ascension
Unknown
Apparent Declination
Unknown
Sunlit
N/A
Visualization observer readout
Local Sidereal Time
19:32:50
Azimuth
Unknown
Elevation
Unknown
Doppler factor
Unknown
Orbital elements
Apogee altitude
524.496 km
Perigee altitude
521.329 km
Semi-major axis
6,901.049 km
Eccentricity
0.00023
Inclination
97.8484°
RAAN
21.2312°
Arg. of periapsis
178.087°
True anomaly
182.03607°
Mean anomaly
182.037°
Eccentric anomaly
182.03653°
Mean motion
3.78591 °/min
Orbital period
95.09 mins
BSTAR
0.0002248
Loading maneuver chart data...
Computing Atmospheric mass density...
Loading historical data...
Loading historical data...
Loading historical data...
Loading historical data...
Loading historical data...
Loading historical data...
Loading historical data...

Documentation

Showing up to 5 results
|